LEMUR-2-CHRIS

Last updated on Wed Feb 14 2018 16:19:05 GMT+0000 (Coordinated Universal Time)

1 40933U 15052D 18042.21711388 .00000851 00000-0 27747-4 0 9993 2 40933 5.9967 319.9907 0013465 59.3515 301.0431 14.77777205128439
UTC large
Height (km)
Speed (km/s)
/
Latitude / Longitude
Inclination (degrees)
Orbital Period (minutes)
Azimuth
Elevation
Range (km)
Doppler Factor

Next 0 passes for location: London (51.5072 / 0.1276)

Sorry there are no passes over London.